Theta_e
299 301 301 301 301 301 302 302 304 305 305 306 306 307 308 311 313 314 313 312 312 311 310 310 310 312 311 311 310 309 309 309 301 298 299 299 299 301 301 301 300 300 298
299 300 300 301 301 301 302 303 305 305 306 306 305 307 308 311 314 314 313 313 312 312 311 311 311 310 309 309 309 310 311 310 304 298 297 298 299 300 300 300 299 298 297
298 300 300 300 300 301 302 304 306 307 307 306 305 306 308 312 314 314 313 313 313 312 311 311 311 310 309 310 310 310 310 309 306 301 298 298 297 298 298 297 297 296 296
298 300 300 300 301 302 304 304 305 306 307 307 307 307 309 313 314 314 314 313 313 312 311 311 311 310 310 310 311 310 310 308 304 301 298 297 296 296 297 295 295 295 294
298 299 300 300 301 302 304 304 305 306 307 308 307 308 310 313 315 314 313 313 313 313 312 312 312 312 312 312 312 311 310 307 302 300 298 297 297 296 297 296 294 293 291
298 299 300 300 300 303 304 306 305 306 307 307 308 309 312 314 315 314 314 313 313 313 312 312 313 313 313 313 312 311 310 307 302 301 301 298 298 298 298 297 294 292 290
297 298 299 300 301 304 306 306 306 307 308 307 308 311 313 314 314 314 314 314 313 312 312 311 313 313 312 311 310 310 307 306 305 304 303 301 299 300 299 297 295 295 291
297 298 298 299 301 305 306 305 306 307 309 309 309 310 314 315 314 315 314 314 314 313 313 313 313 310 311 310 308 306 305 304 303 303 303 302 302 300 300 300 297 293 289
297 298 298 299 303 305 305 305 306 307 308 308 309 310 312 314 314 315 314 314 313 311 311 312 311 310 310 310 308 306 303 302 301 303 303 302 301 300 299 299 293 291 289
297 297 298 300 303 305 304 306 306 307 307 307 308 309 310 313 314 314 314 314 313 312 310 309 310 311 309 309 308 307 303 299 300 299 298 298 298 298 297 297 296 292 288
296 297 297 299 304 305 304 305 306 306 306 306 307 306 309 309 310 312 313 313 313 311 310 308 307 308 308 306 307 306 305 301 297 296 294 293 294 294 294 294 294 292 289
296 296 297 298 302 305 304 304 305 305 305 305 304 303 303 306 308 309 311 312 312 312 309 307 305 304 305 305 304 303 301 298 294 292 290 288 289 289 289 289 289 289 288
295 295 296 298 301 303 303 302 303 304 304 302 300 300 299 301 305 305 306 307 308 308 306 303 302 302 302 301 300 299 297 294 291 289 287 285 286 286 286 287 287 287 286
294 295 295 297 300 301 301 301 303 303 301 300 298 297 297 298 300 301 302 303 303 303 300 300 301 301 301 298 294 294 293 291 289 288 286 285 285 283 283 284 283 281 279
293 294 295 296 299 300 300 300 300 303 303 303 301 301 299 297 300 303 303 302 302 302 301 299 296 293 291 290 290 288 288 288 288 287 287 285 284 283 283 282 282 282 278
293 293 294 295 297 298 298 297 297 298 298 299 301 302 300 302 304 300 302 302 301 301 297 292 289 288 288 287 287 287 287 287 287 287 287 286 285 284 282 281 282 281 277
293 293 293 294 295 297 295 296 294 294 296 297 299 300 300 303 302 301 301 300 300 298 293 290 289 289 289 288 287 287 286 286 286 287 287 286 285 283 282 282 281 279 276
293 292 293 294 295 295 296 295 295 294 294 295 297 300 300 303 303 300 298 296 291 292 292 292 291 291 290 288 287 287 287 287 287 287 287 286 285 283 281 281 281 280 277
293 292 293 293 294 295 297 295 295 294 294 295 295 294 296 299 298 299 298 297 292 290 291 292 293 291 289 288 288 289 289 288 288 287 287 285 283 282 280 280 280 279 278
293 292 292 293 294 294 295 295 294 293 293 294 293 293 292 290 290 291 297 294 291 291 291 292 292 290 289 290 290 290 288 288 287 287 285 284 282 281 280 279 279 278 276
294 292 292 293 293 293 293 293 294 293 293 293 293 293 295 292 290 291 297 296 294 293 293 292 291 290 292 292 291 290 289 288 287 286 284 283 281 280 279 278 277 276 276
293 293 291 292 292 293 293 293 293 293 293 292 293 293 292 290 292 291 291 293 295 295 296 294 291 292 294 294 293 291 289 287 286 285 283 282 280 279 277 277 276 275 274
291 291 292 292 292 292 293 293 293 293 293 293 293 292 291 290 291 291 291 292 293 294 294 293 291 294 294 294 292 290 290 288 287 285 283 281 279 278 277 276 275 274 274
290 291 292 292 292 292 292 292 292 293 293 292 292 292 291 291 291 291 291 292 292 293 294 294 291 294 295 293 291 289 289 288 286 284 283 281 278 277 276 276 275 274 273
288 289 290 292 292 292 292 292 292 292 292 292 292 291 291 291 291 291 291 291 292 292 292 292 290 293 294 293 292 289 289 287 285 284 282 280 278 277 276 275 274 273 273
288 288 289 290 291 292 292 292 292 292 292 292 292 292 292 292 292 292 292 291 292 291 291 290 290 292 293 291 290 289 289 287 284 283 281 279 277 276 275 275 274 273 272
Wind_Speed
9 8 8 8 6 5 5 5 3 2 5 5 5 4 4 4 5 4 8 12 14 18 20 25 23 19 18 19 19 17 18 14 11 6 10 14 14 14 14 14 12 10 10
10 9 8 8 7 6 5 5 4 2 3 5 5 4 3 4 6 10 12 12 16 16 16 17 17 18 19 20 20 18 16 10 18 13 17 13 14 14 14 13 12 11 10
10 9 9 9 8 7 5 6 5 4 4 4 4 4 2 4 6 8 14 14 15 15 15 18 17 15 19 21 18 16 14 13 18 21 16 19 18 16 16 14 13 12 10
11 10 10 10 9 7 6 5 5 4 3 3 4 3 3 4 6 11 13 16 14 14 14 17 18 19 24 18 14 13 11 10 14 23 20 18 19 17 15 17 15 12 13
13 11 10 10 9 7 7 6 6 5 3 4 4 5 4 4 12 13 14 15 18 16 15 17 18 16 15 14 15 13 11 13 16 20 16 17 16 19 17 14 19 18 17
15 14 11 11 10 10 7 6 6 5 5 6 6 8 5 8 12 14 16 17 19 19 20 19 16 15 14 11 13 12 10 14 19 17 14 17 20 19 18 23 25 17 7
16 16 14 13 12 11 9 8 6 6 7 8 8 7 8 11 13 14 16 18 18 19 20 20 17 15 15 16 15 12 11 11 14 16 19 17 22 22 23 23 19 11 11
17 16 16 15 15 12 11 9 8 8 9 9 8 7 11 12 14 15 14 18 16 17 18 17 17 19 19 19 19 19 18 16 13 16 16 16 16 18 17 19 18 15 21
19 17 19 17 16 14 13 11 10 9 9 8 8 8 13 15 16 16 20 19 16 17 17 18 19 21 19 17 22 24 20 17 15 15 16 18 18 16 14 18 23 24 8
21 20 18 21 18 17 16 14 12 11 10 9 8 9 12 15 17 19 22 21 19 19 16 16 17 17 19 19 21 23 24 22 21 21 20 19 16 16 16 13 19 15 13
21 20 18 19 20 18 17 17 14 13 11 9 8 9 12 14 16 18 21 23 22 20 19 18 18 19 19 20 19 20 22 25 22 21 21 19 18 16 14 13 12 10 13
16 19 19 20 20 19 17 18 16 14 13 11 11 10 11 14 16 18 20 20 22 23 23 21 20 20 20 19 17 16 22 22 21 21 20 19 19 17 15 14 13 12 11
13 16 19 20 21 19 19 21 19 17 16 16 15 15 13 14 15 16 19 21 22 23 24 25 26 23 21 19 16 21 21 20 21 21 21 20 19 21 22 23 22 20 21
14 15 18 21 22 20 19 22 23 22 21 20 20 20 18 17 18 18 19 21 22 24 28 28 26 23 21 20 22 22 20 20 20 21 22 24 24 21 20 20 27 27 28
12 16 19 20 22 22 21 23 26 26 28 29 28 28 27 25 25 24 25 27 29 32 33 29 25 24 25 24 23 20 20 20 20 21 25 24 21 21 19 21 20 13 21
11 14 18 21 22 22 22 20 21 22 23 24 26 28 27 23 23 24 26 30 33 35 31 30 27 26 25 26 23 21 19 20 20 23 23 24 24 21 20 16 16 22 26
12 15 16 18 22 24 22 21 17 15 17 21 22 23 25 19 24 27 29 31 32 32 28 27 25 26 26 25 24 23 22 20 21 22 23 23 23 21 19 20 21 24 24
13 15 17 20 23 24 24 23 23 22 19 21 19 20 24 19 28 30 29 30 30 28 27 30 28 27 26 26 25 23 22 22 23 23 23 23 22 23 23 24 24 27 25
15 17 18 19 23 26 27 25 24 23 22 21 21 20 21 21 28 31 31 31 33 30 26 27 27 28 27 26 26 24 24 27 26 25 24 24 24 24 24 24 24 23 22
17 18 18 21 22 23 25 24 23 22 20 23 24 25 27 28 31 35 34 31 31 31 27 27 27 27 28 27 26 25 26 27 27 27 26 26 26 26 26 26 25 25 22
19 19 20 21 23 24 23 23 23 21 22 23 26 31 37 37 29 35 42 41 37 34 32 30 29 29 27 26 26 27 29 29 30 30 29 29 27 27 26 26 28 25 24
21 22 20 23 24 24 25 25 25 24 24 24 25 30 35 32 32 29 33 39 41 38 34 32 32 30 28 27 27 29 31 31 32 31 31 29 29 29 30 29 28 25 26
21 21 23 23 25 24 24 26 26 26 24 26 28 28 34 35 31 33 34 36 39 38 34 33 33 30 27 26 28 30 31 33 33 32 31 31 31 31 31 30 28 28 28
20 22 24 24 23 24 24 24 25 27 27 27 29 31 33 36 34 33 34 37 37 37 36 35 34 33 29 28 28 29 28 28 29 28 28 31 32 32 31 30 29 28 27
22 23 23 25 24 25 25 26 26 27 28 28 29 31 33 35 34 35 36 38 38 38 37 36 36 34 31 30 29 29 26 25 25 26 27 29 32 33 32 31 30 28 26
22 23 24 24 25 26 26 26 28 28 29 31 31 32 34 36 38 38 39 41 39 38 39 38 37 36 34 32 30 29 27 26 25 25 28 31 34 34 32 32 30 28 26
Wind_Direction
201 205 212 211 217 234 248 264 262 286 315 316 313 336 350 31 31 120 142 137 145 144 146 147 154 155 158 165 166 156 150 141 124 117 139 154 139 142 139 133 126 122 115
204 204 212 218 213 221 246 261 263 292 315 310 308 309 6 57 65 140 152 155 147 150 145 164 161 155 151 153 154 147 145 164 147 127 144 144 149 152 146 140 133 127 113
198 205 209 218 221 222 228 250 263 275 282 290 295 300 322 110 94 144 162 159 157 155 157 165 160 157 149 144 140 140 134 131 160 155 148 157 151 157 146 139 130 122 108
194 206 211 213 222 224 221 237 257 243 243 266 270 263 218 133 130 146 158 169 161 150 151 158 163 164 158 164 162 162 157 146 143 152 141 147 154 157 153 137 117 115 107
187 199 219 215 217 225 233 236 247 214 215 209 228 194 207 134 150 150 148 151 154 153 151 152 155 161 168 177 182 183 169 153 146 140 139 151 154 157 159 155 133 123 103
189 194 199 212 211 221 233 237 225 215 191 183 190 185 173 148 154 157 154 158 158 161 160 159 157 162 168 176 170 174 177 163 150 143 143 152 166 167 164 163 146 132 111
196 194 193 200 209 219 224 224 209 200 179 173 173 190 176 162 163 164 164 157 156 161 161 166 161 171 168 163 162 161 150 153 147 152 151 157 162 171 165 164 157 140 118
194 195 190 202 208 213 213 201 191 189 177 181 173 171 176 165 167 174 167 161 157 163 171 173 172 161 163 163 155 141 135 139 145 152 149 145 161 160 167 170 165 138 136
198 198 194 196 205 206 205 190 187 189 176 177 170 161 164 167 173 178 168 165 156 159 165 169 168 163 168 171 156 144 137 131 141 144 147 152 155 158 169 165 150 141 125
215 206 207 190 203 208 205 192 192 187 179 175 173 170 169 174 181 183 185 177 168 169 171 175 177 179 175 172 166 154 143 138 139 135 131 134 140 144 151 168 161 149 128
222 217 213 207 196 211 209 199 196 189 183 181 190 184 183 183 186 192 195 200 197 180 178 178 181 183 174 167 173 166 157 148 144 140 135 133 134 138 143 154 165 163 145
226 221 211 214 206 206 212 205 199 196 189 191 191 191 189 192 194 196 202 204 196 191 185 181 174 168 165 171 172 164 153 152 147 140 132 125 125 125 129 137 141 146 155
226 222 219 213 208 215 209 209 202 201 202 192 193 192 187 187 189 198 204 202 198 188 176 166 160 164 166 163 165 160 159 156 150 143 133 127 126 127 125 123 122 119 119
224 214 220 215 207 219 215 214 211 208 206 204 198 197 190 183 182 184 189 191 186 171 160 159 161 163 164 159 156 160 162 162 159 150 140 134 130 126 125 129 125 119 110
239 221 213 217 213 214 218 217 220 222 219 212 212 204 192 192 190 187 184 179 177 170 161 159 159 160 156 156 157 161 163 165 161 153 148 144 145 145 140 139 131 129 122
233 233 223 212 217 219 220 217 228 231 224 224 221 212 202 204 191 187 183 179 175 169 163 163 163 165 163 164 164 163 165 165 163 160 159 158 157 157 149 143 142 140 132
243 239 224 223 215 214 219 212 206 216 220 227 223 221 213 203 192 188 187 181 175 172 171 172 172 176 175 174 174 170 168 172 171 171 168 165 163 163 159 151 148 145 143
247 243 236 225 222 221 220 219 215 207 201 206 212 220 218 209 196 189 186 177 172 181 187 185 185 186 186 183 180 179 178 175 176 177 176 175 174 170 163 158 158 159 161
260 249 242 234 231 228 227 230 224 218 213 212 206 198 207 207 199 188 188 187 188 190 195 194 195 192 191 189 188 188 185 181 182 181 180 177 176 174 167 166 166 166 165
256 248 241 237 230 228 228 223 221 216 211 208 205 196 186 178 175 182 190 196 200 201 200 202 201 198 194 193 193 190 185 185 182 183 182 180 178 179 173 171 171 164 161
264 259 243 238 234 227 224 222 222 215 211 211 211 210 201 190 193 189 190 196 204 209 207 208 205 202 201 198 196 193 192 190 188 186 184 183 181 176 176 172 167 169 167
258 255 240 229 230 227 224 225 222 218 213 207 211 216 207 198 200 205 199 201 205 209 210 211 208 206 205 205 203 198 194 194 193 191 188 185 181 178 177 173 171 171 168
257 246 244 236 231 229 227 224 222 223 218 212 211 209 200 204 208 211 208 208 208 208 209 210 209 206 207 208 208 204 200 199 197 196 191 187 182 180 179 176 174 171 169
253 244 237 234 229 224 225 224 222 220 218 212 207 208 206 206 210 214 213 214 213 210 209 209 209 208 207 206 205 205 206 205 202 200 199 192 185 182 180 178 175 174 171
249 244 237 230 227 224 224 222 221 219 217 216 208 206 209 210 209 213 216 219 217 212 209 208 207 206 208 207 203 203 203 204 204 201 198 196 190 185 183 179 175 175 173
252 245 242 239 230 226 221 221 221 219 217 216 215 209 210 210 212 213 215 220 217 214 210 207 206 205 205 204 200 199 199 205 202 203 200 195 189 185 183 179 177 176 175